Mackinac Island, MI

10:16 AM EDT on July 23, 2017 (GMT -0400)
Mackinac Island

Weather History for KMCD - May, 2013

Change the Weather History Date:

Saturday, May 11, 2013

  Actual Average Record
Temperature  
Mean Temperature 41 °F -  
Max Temperature 47 °F 53 °F 74 °F (1992)
Min Temperature 35 °F 38 °F 15 °F (1981)
Degree Days  
Heating Degree Days 24    
Moisture  
Dew Point 36 °F    
Average Humidity 84    
Maximum Humidity 94    
Minimum Humidity 62    
Precipitation  
Precipitation 0.07 in - - ()
Sea Level Pressure  
Sea Level Pressure 29.78 in    
Wind  
Wind Speed 6 mph (WNW)    
Max Wind Speed 18 mph    
Max Gust Speed 34 mph    
Visibility 9 miles    
Events Rain , Snow    
Averages and records for this station are not official NWS values.
T = Trace of Precipitation, MM = Missing Value Source: NWS Daily Summary

Daily Weather History Graph

Daily Weather History Graph

Search for Another Location

Airport or City:

Trip Planner

Search our weather history database for the weather conditions in past years. The results will help you decide how hot, cold, wet, or windy it might be!

Date:

Astronomy

May. 11, 2013 Rise Set
Actual Time 6:11 AM EDT 8:59 PM EDT
Civil Twilight 5:37 AM EDT 9:33 PM EDT
Nautical Twilight 4:53 AM EDT 10:17 PM EDT
Astronomical Twilight 4:02 AM EDT 11:09 PM EDT
Moon 7:17 AM EDT (5/11) 10:40 PM EDT (5/11)
Length of Visible Light 15h 56m
Length of Day
14h 47m
Waxing Crescent, 3% of the Moon is Illuminated
May 11
Waxing Crescent
May 18
First Quarter
May 25
Full
May 31
Last Quarter
Jun 8
New

Hourly Weather History & Observations

Time (EDT) Temp. Windchill Dew Point Humidity Pressure Visibility Wind Dir Wind Speed Gust Speed Precip Events Conditions
12:15 AM 43.2 °F - 37.8 °F 81% 29.92 in 10.0 mi Calm Calm - N/A   Overcast
12:34 AM 43.0 °F 41.3 °F 36.5 °F 78% 29.92 in 10.0 mi West 3.5 mph - N/A   Overcast
12:55 AM 43.3 °F 41.7 °F 36.0 °F 75% 29.92 in 10.0 mi WNW 3.5 mph - N/A   Overcast
1:15 AM 42.8 °F 41.1 °F 36.9 °F 80% 29.90 in 10.0 mi West 3.5 mph - N/A   Overcast
1:34 AM 41.5 °F 38.6 °F 37.0 °F 84% 29.90 in 10.0 mi West 4.6 mph - N/A   Mostly Cloudy
1:55 AM 41.0 °F 38.0 °F 36.5 °F 84% 29.89 in 10.0 mi West 4.6 mph - N/A   Mostly Cloudy
2:15 AM 41.4 °F 38.4 °F 36.7 °F 83% 29.89 in 10.0 mi West 4.6 mph - N/A   Overcast
2:34 AM 42.1 °F 39.2 °F 37.6 °F 84% 29.88 in 10.0 mi West 4.6 mph - N/A   Mostly Cloudy
2:55 AM 41.0 °F 38.0 °F 37.6 °F 88% 29.87 in 10.0 mi West 4.6 mph - N/A   Scattered Clouds
3:15 AM 40.1 °F 36.9 °F 37.0 °F 89% 29.87 in 10.0 mi WNW 4.6 mph - N/A   Scattered Clouds
3:35 AM 40.5 °F 38.4 °F 38.3 °F 92% 29.86 in 10.0 mi WNW 3.5 mph - N/A   Clear
3:55 AM 40.1 °F 36.9 °F 37.6 °F 91% 29.85 in 10.0 mi WNW 4.6 mph - N/A   Clear
4:15 AM 39.9 °F 36.7 °F 37.2 °F 90% 29.85 in 10.0 mi WNW 4.6 mph - N/A   Clear
4:35 AM 40.1 °F 36.1 °F 37.0 °F 89% 29.84 in 10.0 mi WNW 5.8 mph - N/A   Clear
4:55 AM 38.3 °F 34.8 °F 35.4 °F 89% 29.84 in 10.0 mi West 4.6 mph - N/A   Clear
5:14 AM 37.8 °F 34.2 °F 35.6 °F 92% 29.83 in 10.0 mi West 4.6 mph - N/A   Clear
5:35 AM 37.6 °F 33.1 °F 35.6 °F 93% 29.83 in 10.0 mi WNW 5.8 mph - N/A   Clear
5:55 AM 38.1 °F 33.7 °F 36.1 °F 93% 29.83 in 10.0 mi West 5.8 mph - N/A   Clear
6:14 AM 39.0 °F 34.8 °F 37.2 °F 93% 29.82 in 10.0 mi West 5.8 mph - N/A   Scattered Clouds
6:35 AM 39.7 °F 36.5 °F 38.1 °F 94% 29.82 in 5.0 mi WNW 4.6 mph - N/A   Mostly Cloudy
6:55 AM 39.6 °F 37.4 °F 37.9 °F 94% 29.81 in 10.0 mi West 3.5 mph - N/A   Mostly Cloudy
7:14 AM 39.4 °F 36.1 °F 37.8 °F 94% 29.81 in 10.0 mi West 4.6 mph - N/A   Scattered Clouds
7:35 AM 40.6 °F 38.6 °F 39.0 °F 94% 29.80 in 10.0 mi SSW 3.5 mph - N/A   Scattered Clouds
7:55 AM 41.2 °F - 39.4 °F 93% 29.80 in 10.0 mi Calm Calm - N/A   Scattered Clouds
8:14 AM 41.4 °F 39.4 °F 39.6 °F 93% 29.79 in 10.0 mi South 3.5 mph - N/A   Scattered Clouds
8:35 AM 41.4 °F 38.4 °F 39.4 °F 93% 29.79 in 10.0 mi South 4.6 mph - N/A   Mostly Cloudy
8:55 AM 41.2 °F - 39.2 °F 93% 29.79 in 10.0 mi Calm Calm - N/A   Mostly Cloudy
9:14 AM 42.6 °F - 39.0 °F 87% 29.79 in 10.0 mi Calm Calm - N/A   Scattered Clouds
9:35 AM 42.4 °F - 38.1 °F 85% 29.79 in 10.0 mi Calm Calm - N/A   Scattered Clouds
9:55 AM 43.5 °F 41.9 °F 37.4 °F 79% 29.78 in 10.0 mi West 3.5 mph - N/A   Scattered Clouds
10:14 AM 43.7 °F - 35.6 °F 73% 29.77 in 10.0 mi Calm Calm - N/A   Overcast
10:35 AM 45.5 °F - 35.2 °F 67% 29.76 in 10.0 mi Calm Calm - N/A   Overcast
10:55 AM 45.7 °F 42.0 °F 36.9 °F 71% 29.75 in 10.0 mi NE 6.9 mph - N/A   Overcast
11:14 AM 45.9 °F - 36.5 °F 70% 29.74 in 10.0 mi Calm Calm - N/A   Mostly Cloudy
11:35 AM 46.6 °F - 34.0 °F 62% 29.73 in 10.0 mi South 3.5 mph - N/A   Overcast
11:55 AM 47.8 °F - 36.5 °F 65% 29.72 in 10.0 mi NNE 5.8 mph - N/A   Overcast
12:14 PM 45.7 °F 44.4 °F 37.2 °F 72% 29.72 in 10.0 mi ENE 3.5 mph - N/A   Overcast
12:35 PM 43.9 °F 42.3 °F 35.1 °F 71% 29.72 in 10.0 mi SW 3.5 mph - N/A   Overcast
12:55 PM 43.7 °F 39.7 °F 36.5 °F 76% 29.71 in 10.0 mi West 6.9 mph - N/A   Overcast
1:14 PM 43.0 °F 40.3 °F 38.5 °F 84% 29.70 in 7.0 mi WNW 4.6 mph - N/A Rain Light Rain
1:35 PM 43.0 °F 38.8 °F 39.7 °F 88% 29.70 in 10.0 mi West 6.9 mph - N/A   Overcast
1:55 PM 42.4 °F 39.6 °F 39.4 °F 89% 29.70 in 7.0 mi WSW 4.6 mph - N/A Rain Light Rain
2:14 PM 42.1 °F 36.1 °F 39.6 °F 91% 29.69 in 5.0 mi West 10.4 mph - N/A   Overcast
2:35 PM 41.4 °F 34.3 °F 38.5 °F 89% 29.70 in 10.0 mi West 12.7 mph - 0.01 in Rain Light Rain
2:55 PM 41.0 °F 33.9 °F 38.3 °F 90% 29.70 in 10.0 mi WNW 12.7 mph - 0.01 in Rain Rain
3:14 PM 38.8 °F 31.6 °F 36.3 °F 91% 29.71 in 4.0 mi NNW 11.5 mph 19.6 mph 0.01 in   Overcast
3:35 PM 35.6 °F 28.0 °F 33.3 °F 91% 29.72 in 1.2 mi NW 10.4 mph 23.0 mph 0.04 in Snow Light Snow
3:55 PM 35.1 °F 27.4 °F 33.3 °F 93% 29.71 in 1.8 mi NW 10.4 mph 19.6 mph 0.06 in Snow Light Snow
4:14 PM 35.6 °F 27.1 °F 34.0 °F 94% 29.72 in 4.0 mi NW 12.7 mph 18.4 mph N/A Snow Light Snow
4:35 PM 35.8 °F 26.9 °F 34.0 °F 93% 29.73 in 10.0 mi NW 13.8 mph 20.7 mph N/A Snow Light Snow
5:15 PM 36.5 °F 27.8 °F 34.3 °F 92% 29.74 in 10.0 mi NW 13.8 mph 23.0 mph N/A Snow Light Snow
5:35 PM 36.5 °F 28.2 °F 34.2 °F 91% 29.73 in 10.0 mi NW 12.7 mph 18.4 mph N/A   Overcast
5:54 PM 36.9 °F 27.8 °F 34.2 °F 90% 29.75 in 10.0 mi NW 15.0 mph 19.6 mph N/A   Overcast
6:15 PM 36.9 °F 28.2 °F 34.3 °F 91% 29.75 in 10.0 mi NW 13.8 mph 19.6 mph N/A   Overcast
6:35 PM 37.2 °F 28.7 °F 34.7 °F 91% 29.75 in 10.0 mi WNW 13.8 mph 19.6 mph N/A   Overcast
6:55 PM 37.6 °F 29.1 °F 34.9 °F 90% 29.75 in 10.0 mi WNW 13.8 mph 19.6 mph N/A   Overcast
7:15 PM 37.9 °F 30.0 °F 35.2 °F 90% 29.75 in 10.0 mi WNW 12.7 mph 18.4 mph N/A Snow Light Snow
7:35 PM 38.7 °F 31.8 °F 35.6 °F 89% 29.76 in 10.0 mi WNW 10.4 mph 17.3 mph N/A   Overcast
7:54 PM 39.4 °F 31.8 °F 35.6 °F 86% 29.75 in 10.0 mi WNW 12.7 mph 18.4 mph N/A   Overcast
8:15 PM 40.1 °F 32.0 °F 34.9 °F 82% 29.75 in 10.0 mi WNW 15.0 mph 18.4 mph N/A   Overcast
8:35 PM 40.5 °F 31.8 °F 33.1 °F 75% 29.75 in 10.0 mi WNW 17.3 mph 25.3 mph N/A   Overcast
8:54 PM 39.7 °F 31.9 °F 32.5 °F 75% 29.74 in 10.0 mi West 13.8 mph 21.9 mph N/A   Mostly Cloudy
9:15 PM 40.1 °F 31.3 °F 32.7 °F 75% 29.74 in 10.0 mi West 17.3 mph 21.9 mph N/A   Mostly Cloudy
9:35 PM 40.3 °F 31.6 °F 32.0 °F 72% 29.74 in 10.0 mi WNW 17.3 mph 23.0 mph N/A   Overcast
9:54 PM 40.1 °F 32.0 °F 31.8 °F 72% 29.74 in 10.0 mi West 15.0 mph 25.3 mph N/A   Mostly Cloudy
10:15 PM 39.7 °F 31.2 °F 31.8 °F 73% 29.74 in 10.0 mi West 16.1 mph 25.3 mph N/A   Scattered Clouds
10:35 PM 39.2 °F 30.5 °F 31.6 °F 74% 29.73 in 10.0 mi West 16.1 mph 23.0 mph N/A   Clear
10:54 PM 39.0 °F 30.3 °F 32.0 °F 76% 29.72 in 10.0 mi WNW 16.1 mph 23.0 mph N/A   Clear
11:35 PM 38.7 °F 29.1 °F 32.0 °F 77% 29.71 in 10.0 mi West 18.4 mph 34.5 mph N/A   Clear
11:54 PM 38.8 °F 29.4 °F 32.2 °F 77% 29.70 in 10.0 mi West 18.4 mph 28.8 mph N/A   Mostly Cloudy